Location: Aulagny
(45.1643°N, 4.3096°E)
Time: 04:21:37
(UTC+00:00)

USA 238 DEB - Pass Details

Date: 21 October 2019
Orbit: 1026 x 1186 km, 63.4° (Epoch: 19 November)

Event Time Altitude Azimuth Distance (km) Brightness Sun altitude
Rises 18:57:29 0° 231° (SW) 3,775 7.2 -23.5°
Reaches altitude 10° 19:00:07 10° 235° (SW) 2,837 6.5 -23.9°
Maximum altitude 19:06:42 58° 314° (NW) 1,224 4.2 -25.1°
Enters shadow 19:12:34 15° 31° (NNE) 2,606 5.5 -26.1°
